TimeCDT,TemperatureF,Dew PointF,Humidity,Sea Level PressureIn,VisibilityMPH,Wind Direction,Wind SpeedMPH,Gust SpeedMPH,PrecipitationIn,Events,Conditions,WindDirDegrees,DateUTC
12:53 AM,61.0,30.9,32,29.58,10.0,SW,13.8,-,N/A,,Clear,220,2013-10-04 05:53:00
1:53 AM,57.9,30.9,36,29.58,10.0,SW,11.5,-,N/A,,Clear,220,2013-10-04 06:53:00
2:53 AM,59.0,30.9,35,29.58,10.0,SSW,11.5,-,N/A,,Clear,200,2013-10-04 07:53:00
3:53 AM,59.0,30.9,35,29.57,10.0,SSW,15.0,-,N/A,,Clear,200,2013-10-04 08:53:00
4:53 AM,53.1,30.9,43,29.59,10.0,South,11.5,-,N/A,,Clear,190,2013-10-04 09:53:00
5:53 AM,51.1,30.9,46,29.62,10.0,South,9.2,-,N/A,,Clear,190,2013-10-04 10:53:00
6:53 AM,50.0,30.9,48,29.64,10.0,South,10.4,-,N/A,,Clear,190,2013-10-04 11:53:00
7:53 AM,53.1,30.9,43,29.68,10.0,SSW,12.7,-,N/A,,Clear,200,2013-10-04 12:53:00
8:53 AM,57.0,32.0,39,29.72,10.0,SSW,13.8,-,N/A,,Clear,210,2013-10-04 13:53:00
9:53 AM,68.0,34.0,28,29.71,10.0,SSW,16.1,-,N/A,,Clear,210,2013-10-04 14:53:00
10:53 AM,75.9,32.0,20,29.73,10.0,WSW,21.9,27.6,N/A,,Clear,250,2013-10-04 15:53:00
11:53 AM,77.0,30.0,18,29.74,10.0,West,16.1,25.3,N/A,,Clear,280,2013-10-04 16:53:00
12:53 PM,78.1,28.0,16,29.74,10.0,WSW,9.2,21.9,N/A,,Clear,250,2013-10-04 17:53:00
1:53 PM,79.0,28.0,15,29.74,10.0,WNW,8.1,-,N/A,,Clear,300,2013-10-04 18:53:00
2:53 PM,79.0,28.0,15,29.72,10.0,WNW,10.4,16.1,N/A,,Clear,300,2013-10-04 19:53:00
3:53 PM,80.1,28.9,15,29.71,10.0,West,8.1,-,N/A,,Clear,270,2013-10-04 20:53:00
4:53 PM,78.1,30.0,17,29.75,10.0,SSW,12.7,17.3,N/A,,Clear,210,2013-10-04 21:53:00
5:53 PM,75.0,39.0,27,29.79,10.0,NE,18.4,25.3,N/A,,Overcast,40,2013-10-04 22:53:00
6:00 PM,73.4,39.2,29,29.93,10.0,NNE,19.6,-,N/A,,Overcast,20,2013-10-04 23:00:00
6:53 PM,68.0,34.0,28,29.85,10.0,NNE,18.4,24.2,N/A,,Clear,30,2013-10-04 23:53:00
7:53 PM,61.0,30.0,31,29.91,10.0,NNE,10.4,23.0,N/A,,Clear,30,2013-10-05 00:53:00
8:53 PM,57.0,28.0,33,29.96,10.0,North,18.4,26.5,N/A,,Clear,10,2013-10-05 01:53:00
9:53 PM,54.0,28.0,37,29.98,10.0,NNE,18.4,27.6,N/A,,Clear,20,2013-10-05 02:53:00
10:53 PM,51.1,27.0,39,29.99,10.0,North,23.0,34.5,N/A,,Clear,10,2013-10-05 03:53:00
11:53 PM,48.0,27.0,44,30.02,10.0,North,23.0,36.8,N/A,,Clear,10,2013-10-05 04:53:00